Location: Newark
(45.0500°N, 41.9667°E)
Time: 09:26:15
(UTC+00:00)

Starlink (trailer) - Pass Details

Date: 27 July 2019
Orbit: 549 x 550 km, 53.0° (Epoch: 19 August)

Event Time Altitude Azimuth Distance (km) Brightness Sun altitude
Exits shadow 19:16:35 12° 73° (ENE) 1,728 6.0 -20.1°
Drops below altitude 10° 19:16:51 10° 71° (ENE) 1,825 6.1 -20.1°
Sets 19:19:13 0° 62° (ENE) 2,722 7.1 -20.3°
